Powrót do katalogu

JD 2

AktywnyNaukaLEO
NORAD 14729·PAYLOAD·🇺🇸 United States

Wystrzelony Feb 5, 1984 z Vandenberg Space Force Base

Loading…

Następne Przeloty (najbliższe 24 godziny)

TLE

ŚwieżeSource: Space-Track

Epoka: Sep 14, 2026, 15:34 UTC

1 14729U 84012D   26257.64904019  .00002065  00000-0  27230-3 0  9993
2 14729  63.3070 149.7678 0735632 130.1383 236.6522 13.76577547356227

Śledź JD 2 w czasie rzeczywistym z AllMySat

Download on the App Store